Location: Peebles
(55.6412°N, 3.1714°W)
Time: 21:53:08
(UTC+01:00)

deb Kosmos-2123 - Pass Details

Date: 11 July 2022
Orbit: 942 x 985 km, 82.9° (Epoch: 17 August)

Event Time Altitude Azimuth Distance (km) Brightness Sun altitude
Exits shadow 00:08:59 13° 151° (SSE) 2,513 ? -10.8°
Maximum altitude 00:14:03 39° 88° (E) 1,430 ? -11.0°
Drops below altitude 10° 00:19:46 10° 22° (NNE) 2,728 ? -11.2°
Sets 00:22:25 0° 15° (NNE) 3,673 ? -11.3°
